Terminal Aerodrome Forecast
Issued by NWS State College, PA

Home | Current Version | Previous Version | Text Only | Print | Product List | Glossary On
Versions: 1 2 3 4 5 6 7 8 9 10 11 12 13 14 15 16 17 18 19 20 21 22 23 24 25 26 27 28 29 30 31 32 33 34 35 36 37 38 39 40 41 42 43 44 45 46 47 48 49
000
FTUS41 KCTP 230945 AAA
TAFIPT
TAF AMD
KIPT 230945Z 2310/2406 VRB03KT 6SM HZ FEW004
     FM231300 VRB03KT P6SM FEW050 SCT200
     FM231900 24007KT P6SM VCTS BKN050CB
     FM240000 31005KT P6SM SCT050 BKN100
     FM240500 29004KT P6SM BKN040=

USA.gov is the U.S. government's official web portal to all federal, state and local government web resources and services.